Regional Weather Roundup
Issued by NWS

Home | Current Version | Previous Version | Text Only | Print | Product List | Glossary On
Versions: 1 2 3 4 5 6 7 8 9 10 11 12 13 14 15 16 17 18 19 20 21 22 23 24 25 26 27 28 29 30 31 32 33 34 35 36 37 38 39 40 41 42 43 44 45 46 47 48 49 50
000
ASUS43 KLMK 270310
RWRKY
KENTUCKY REGIONAL WEATHER ROUNDUP
NATIONAL WEATHER SERVICE LOUISVILLE KY
1100 PM EDT THU MAR 26 2015

NOTE "FAIR" INDICATES FEW OR NO CLOUDS BELOW 12,000 FEET
WITH NO SIGNIFICANT WEATHER AND/OR OBSTRUCTIONS TO VISIBILITY.

KYZ001>023-026-027-061>063-070>075-270400-
WESTERN AND SOUTH CENTRAL KENTUCKY

CITY           SKY/WX    TMP DP  RH WIND       PRES   REMARKS
PADUCAH        CLEAR     37  32  82 CALM      30.05S
HENDERSON      CLEAR     37  32  81 CALM      30.04S
OWENSBORO      PTCLDY    38  35  89 CALM      30.05R
HOPKINSVILLE   PTCLDY    39  36  86 NW2       30.05S
BOWLING GREEN  PTCLDY    42  37  82 W5        30.05R
GLASGOW        CLOUDY    41  37  85 NW3       30.02R
$$

KYZ024-025-028>034-038-045-046-053-270400-
NORTH CENTRAL KENTUCKY

CITY           SKY/WX    TMP DP  RH WIND       PRES   REMARKS
LOUISVILLE/SDF CLOUDY    42  36  79 W6        30.02R
LOUISVILLE/LOU CLOUDY    42  37  82 CALM      30.01R
FORT KNOX      CLOUDY    37  35  92 W5        30.00R WCI  33
$$

KYZ035>037-039>044-047>052-055>060-089>105-270400-
NORTHEAST KENTUCKY

CITY           SKY/WX    TMP DP  RH WIND       PRES   REMARKS
LEXINGTON      CLOUDY    40  36  86 N8        29.98F WCI  34
COVINGTON      CLOUDY    40  32  73 VRB5      29.97S
FRANKFORT      CLOUDY    40  36  86 CALM      29.98S
$$

KYZ054-064>069-076>088-106>120-270400-
SOUTHEAST KENTUCKY

CITY           SKY/WX    TMP DP  RH WIND       PRES   REMARKS
JACKSON        LGT RAIN  40  37  89 NE5       29.93F
LONDON         LGT RAIN  41  35  79 NE6       29.94F
SOMERSET       RAIN      39  37  93 NE6       29.97S WCI  35
MIDDLESBORO    LGT RAIN  44  41  89 N13G18    29.92R
MONTICELLO     LGT RAIN  42  40  93 CALM      30.00R
$$



USA.gov is the U.S. government's official web portal to all federal, state and local government web resources and services.